Location: Kalberh�ni
(46.4610°N, 7.2453°E)
Time: 00:45:08
(UTC+00:00)

FALCON 9 DEB - Pass Details

Date: 30 October 2021
Orbit: 345 x 354 km, 53.0° (Epoch: 28 November)

Event Time Altitude Azimuth Distance (km) Brightness Sun altitude
Rises 17:48:19 0° 257° (WSW) 2,166 8.4 -15.9°
Reaches altitude 10° 17:50:23 10° 265° (W) 1,329 7.0 -16.2°
Maximum altitude 17:53:13 42° 338° (NNW) 528 3.6 -16.7°
Enters shadow 17:54:02 33° 21° (NNE) 634 3.7 -16.9°
